Vertical_Velocity
-0 -1 4 -1 -3 -3 1 2 2 2 -3 -0 1 0 1 1 -1 -0 -0 -0 -2 -3 -3 -0 -2 1 1 -2 -13 4 -2 -2 -2 1 -2 1 1 4 4 -1 -1 -0 5 2 1 -13 5
1 0 -1 1 1 -1 -1 -1 1 4 -1 -1 -1 -2 3 -1 1 -1 -1 -2 -2 -3 -0 -1 0 2 3 -8 3 6 -5 -4 -1 -1 0 1 -3 0 -0 8 7 5 -0 -11 5 0 -12
2 1 -0 2 1 2 0 -1 0 2 1 1 -2 1 -1 2 1 1 -2 -2 -3 -3 1 1 -1 -0 -1 1 -3 2 -5 -1 -4 -1 -2 -2 6 -6 14 -4 8 9 -0 6 -14 3 9
-0 2 3 1 -1 1 2 1 0 -1 3 -1 -0 1 -1 2 1 1 -1 -2 -2 -7 -2 2 0 1 -14 6 2 1 2 -4 2 1 -1 -2 6 1 -5 7 -2 -1 16 -2 2 5 -16
-2 1 1 2 1 0 0 1 1 -1 2 1 1 -1 -1 2 2 -0 2 -2 -0 -7 -4 0 -0 -1 -13 1 -4 6 -3 -1 1 -1 1 4 5 -1 5 3 -5 -3 -4 -8 -4 -1 -0
2 -2 -1 1 1 1 1 1 0 -1 1 3 0 -1 -2 0 2 2 -1 0 -2 -2 -1 -3 -1 3 -0 -3 -2 -1 1 0 0 -0 6 2 -1 -4 -4 3 -29 -3 4 9 -9 -14 -0
3 -2 2 0 1 1 1 3 -0 1 -0 1 2 -1 -1 1 1 2 1 -1 1 -1 -1 -3 -3 1 -4 0 -1 -0 1 2 2 2 -5 -2 -4 -28 -9 -13 11 5 9 -5 -7 -6 -3
2 -1 -0 1 -0 2 2 2 3 1 2 1 -1 2 1 -1 0 1 0 0 5 -0 -7 -4 2 -5 9 -7 -1 1 0 -4 -2 -6 3 12 -34 -4 23 7 11 7 5 -10 -2 -1 15
-1 -3 -2 10 11 1 2 0 2 2 0 1 -1 5 1 1 -1 0 0 4 0 0 7 -6 -8 5 -5 14 -0 -4 2 3 -1 5 0 -8 -23 13 2 2 3 -4 -3 -3 0 17 9
0 -2 4 21 9 5 5 4 1 2 3 -0 2 4 -1 3 -3 -1 0 3 1 -0 6 -11 -8 -15 -2 4 -9 10 8 5 0 -2 2 3 15 -6 4 -2 7 6 -1 7 -4 20 -7
-4 0 1 5 -0 10 -1 5 6 4 3 -1 5 2 -0 5 -2 -2 4 2 2 -2 6 -5 0 -1 -6 -7 5 -8 7 14 0 -4 3 -30 -1 -3 6 -33 14 -51 13 -19 -1 14 6
-1 0 4 6 0 5 6 1 8 5 4 2 4 5 -2 2 -2 0 -1 1 -1 -0 -9 -1 -1 -3 1 -2 -2 9 -9 16 4 11 18 -4 6 8 -4 2 -3 17 6 8 11 17 12
2 5 1 2 16 7 12 1 0 7 7 -0 6 1 -0 -1 -2 2 -2 2 0 3 -3 -1 -3 -5 0 1 -1 6 2 -4 -3 11 -1 7 -8 10 -4 2 2 35 17 2 11 13 -4
0 -0 3 -4 -7 8 17 3 -5 10 6 3 7 -1 7 2 4 3 1 -1 7 3 -1 -4 -4 -1 1 -0 -3 8 23 2 5 -2 3 3 -1 -5 -5 -18 -16 1 0 -1 -3 -1 -1
-0 5 7 2 -1 20 9 5 2 4 9 7 5 6 1 -0 -3 13 5 -3 -11 2 0 -2 3 6 1 -1 12 7 -2 0 1 -6 3 -1 -17 9 6 -3 19 -7 4 -34 15 6 -4
7 4 7 6 -4 25 15 -0 3 1 12 6 1 7 -2 3 6 12 4 -9 -5 1 5 1 -2 -2 -2 -1 -3 -3 4 -0 -10 -4 -5 2 10 4 10 24 2 -8 -8 29 5 1 3
-2 0 7 -4 -13 29 10 2 4 30 2 1 10 13 -3 5 14 10 -6 -5 -5 -0 8 -2 1 11 -3 -6 -8 1 -9 -13 10 8 10 7 2 1 11 5 -19 8 3 6 -9 15 -4
-5 2 12 5 -12 17 6 7 2 11 5 -3 5 9 -2 8 4 -4 -4 -6 -1 1 1 3 -3 -2 15 8 -10 4 -12 -3 -1 -2 -6 -14 5 1 -9 4 -8 -8 -18 6 8 1 -2
-9 9 13 10 -13 24 7 1 16 3 -4 -6 9 7 2 3 -1 -6 -2 -0 3 10 -0 2 -5 0 8 26 -2 -5 -10 2 6 -6 -6 -2 2 1 -10 23 20 9 -3 -1 3 1 -2
-3 -4 8 15 -11 10 2 3 28 2 -4 -9 6 10 8 7 -1 -0 2 -2 -1 3 -1 1 -6 5 2 3 -7 -1 0 9 -1 -8 3 41 4 -5 -4 -4 -17 -8 -3 -5 2 -0 2
-7 0 6 6 -10 20 15 11 59 13 -3 -0 -1 -3 -10 -6 -11 -4 9 1 3 -2 -2 3 -5 -1 3 2 3 7 -3 6 2 13 10 -4 3 -2 32 4 -3 -18 -15 -8 -2 -8 -1
1 -2 1 5 -11 16 -13 1 -16 10 4 -3 3 4 6 -3 -0 0 5 -6 4 0 -0 -4 -6 -1 5 1 -5 -13 3 9 -13 -8 -9 -5 -12 2 2 12 7 -1 1 1 -0 -1 -3
-6 0 -2 3 -7 6 6 14 -2 20 5 -3 0 -2 1 4 -1 4 -12 -2 -3 6 -5 -6 -2 7 -2 -4 7 3 9 -12 7 -4 -5 -6 -2 3 3 2 -7 -2 -1 -3 2 -0 2
-5 -11 1 4 -7 -16 -8 2 19 12 4 1 -0 0 6 -7 -3 1 9 4 2 4 6 -3 -2 5 6 15 10 -7 13 2 5 12 3 -5 5 3 -1 2 -3 4 2 -1 3 -3 1
-0 5 -4 1 -15 11 16 10 12 2 4 -1 -3 1 10 -5 -1 -0 8 5 -1 9 3 -0 3 -4 4 0 7 3 -0 3 -1 -1 4 -6 0 -1 -1 -2 -4 5 -1 -1 -3 -7 4
6 -3 -4 -8 3 -0 -1 3 11 6 2 -2 -0 4 5 -1 4 -3 2 -2 -1 4 3 -5 0 -3 2 -3 5 -4 -2 0 -2 -6 2 8 6 -4 -2 0 -1 1 -0 1 6 -5 -0
-3 -6 -6 2 -1 -12 4 1 3 2 -0 -5 -1 1 12 -4 -2 -1 2 2 -1 5 3 -0 -1 6 9 -1 8 2 2 3 -4 -3 -2 7 5 -2 -2 -2 -3 1 -1 -2 -3 2 3
-2 -2 -0 -9 -7 -9 10 10 -5 1 1 -3 2 0 7 -4 -3 -1 1 3 0 13 5 -1 5 12 8 4 3 -4 1 -3 -1 2 -6 -7 -8 -4 1 -1 -14 -3 -2 -1 -0 -0 1
0 4 -0 -1 -4 3 -1 16 13 -1 0 -2 -1 2 6 -1 -7 2 0 2 -2 8 5 -3 1 1 -3 -2 -9 7 5 -2 6 -2 3 -3 -18 -22 -14 -17 0 1 -1 1 1 -0 -2
Height
3074 3073 3072 3071 3071 3071 3072 3071 3071 3069 3068 3067 3066 3066 3066 3066 3064 3063 3061 3060 3059 3057 3056 3055 3056 3058 3059 3059 3061 3060 3063 3068 3069 3071 3074 3078 3081 3085 3085 3091 3097 3095 3099 3104 3107 3108 3109
3067 3066 3066 3065 3065 3064 3065 3066 3066 3065 3064 3063 3062 3061 3061 3061 3060 3058 3057 3056 3054 3052 3051 3050 3051 3052 3053 3053 3059 3057 3057 3063 3066 3067 3069 3073 3076 3081 3083 3087 3089 3093 3096 3097 3100 3103 3105
3059 3059 3059 3058 3057 3058 3058 3059 3060 3060 3060 3058 3057 3056 3055 3055 3055 3055 3053 3053 3051 3048 3046 3046 3046 3047 3045 3053 3050 3053 3052 3057 3061 3064 3066 3069 3074 3075 3081 3083 3085 3086 3089 3093 3092 3096 3099
3052 3051 3051 3051 3051 3050 3051 3051 3052 3053 3053 3053 3052 3050 3049 3049 3051 3050 3049 3049 3047 3045 3042 3041 3041 3041 3036 3047 3045 3048 3048 3053 3057 3059 3062 3067 3068 3072 3074 3075 3079 3082 3084 3081 3080 3088 3092
3045 3044 3043 3042 3042 3042 3043 3044 3044 3046 3047 3047 3047 3045 3044 3043 3044 3045 3044 3044 3043 3042 3040 3038 3038 3037 3035 3041 3040 3044 3044 3048 3051 3054 3055 3060 3064 3067 3070 3072 3075 3074 3069 3069 3076 3081 3087
3035 3035 3035 3034 3034 3034 3035 3036 3037 3038 3039 3041 3040 3040 3039 3038 3038 3038 3038 3040 3039 3039 3036 3035 3036 3037 3035 3036 3036 3036 3039 3042 3045 3049 3052 3055 3058 3060 3061 3063 3056 3060 3066 3065 3068 3075 3080
3025 3024 3024 3024 3024 3025 3026 3027 3030 3031 3033 3033 3035 3035 3034 3032 3032 3032 3033 3035 3038 3034 3030 3030 3030 3031 3026 3032 3031 3033 3035 3037 3040 3043 3045 3050 3052 3043 3045 3050 3055 3062 3066 3066 3068 3073 3077
3012 3013 3015 3015 3015 3016 3017 3019 3021 3023 3025 3027 3028 3030 3028 3028 3027 3026 3028 3030 3032 3030 3022 3020 3023 3021 3025 3024 3026 3028 3031 3033 3034 3034 3040 3045 3037 3037 3048 3052 3056 3058 3060 3060 3064 3069 3072
2997 3002 3006 3004 3003 3005 3008 3010 3013 3015 3017 3019 3021 3023 3023 3023 3022 3022 3024 3026 3027 3024 3016 3007 3012 3013 3017 3018 3017 3022 3025 3027 3027 3029 3031 3033 3026 3041 3045 3049 3053 3052 3055 3056 3060 3065 3065
2983 2987 2992 2990 2989 2993 2997 3000 3004 3007 3009 3012 3014 3016 3017 3018 3020 3018 3020 3022 3022 3022 3012 3003 3002 3000 3005 3007 3007 3015 3017 3022 3022 3022 3029 3030 3029 3034 3038 3040 3047 3047 3049 3054 3054 3058 3057
2970 2972 2976 2978 2979 2980 2986 2990 2994 2998 3001 3004 3006 3009 3012 3013 3013 3014 3018 3017 3018 3021 3014 2999 2995 2995 2996 3001 3003 3004 3008 3009 3013 3018 3023 3015 3021 3026 3030 3030 3040 3037 3050 3050 3049 3049 3052
2961 2960 2962 2964 2966 2970 2972 2981 2986 2990 2994 2998 3000 3003 3005 3008 3009 3011 3011 3013 3016 3020 3007 2996 2992 2992 2994 2995 2996 2998 2999 3003 3007 3012 3014 3014 3019 3021 3021 3027 3033 3039 3046 3045 3043 3044 3045
2954 2951 2950 2952 2955 2956 2960 2969 2976 2983 2987 2992 2994 2997 3001 3003 3005 3005 3007 3010 3015 3009 2999 2993 2990 2991 2992 2991 2991 2993 2994 2997 3000 3006 3008 3009 3009 3013 3016 3019 3026 3032 3040 3036 3030 3031 3030
2946 2944 2941 2941 2945 2946 2953 2959 2966 2976 2980 2985 2988 2992 2996 2998 3000 3000 3002 3007 3006 2996 2992 2988 2987 2988 2987 2987 2987 2989 2990 2994 3000 3004 3005 3004 3004 3003 3003 3008 3013 3020 3028 3020 3023 3026 3023
2940 2937 2935 2933 2938 2936 2944 2954 2962 2968 2974 2979 2983 2987 2990 2992 2995 2994 2996 2998 2993 2991 2988 2986 2985 2984 2984 2983 2987 2986 2989 2991 2994 3000 3002 2999 2995 2992 2996 3005 3010 3013 3011 3010 3018 3014 3021
2934 2931 2928 2925 2927 2925 2936 2947 2956 2962 2967 2972 2977 2981 2985 2988 2989 2989 2989 2986 2985 2984 2983 2983 2981 2980 2979 2981 2985 2986 2988 2989 2991 2995 2997 2998 2993 2990 2990 2998 3004 3008 3014 3013 3012 3011 3020
2930 2926 2923 2919 2918 2918 2930 2940 2949 2954 2961 2966 2972 2975 2978 2982 2983 2983 2979 2977 2978 2978 2979 2980 2978 2978 2979 2980 2982 2985 2985 2986 2987 2989 2988 2993 2999 2990 2990 2990 2995 3001 3005 3005 3005 3007 3005
2926 2921 2918 2914 2911 2916 2926 2935 2943 2949 2955 2962 2966 2969 2973 2975 2977 2974 2973 2974 2973 2972 2974 2975 2972 2971 2978 2981 2980 2982 2981 2982 2982 2983 2985 2990 2992 2985 2983 2985 2992 2999 2997 3001 3002 3004 3005
2921 2917 2914 2911 2909 2913 2923 2929 2935 2944 2950 2957 2960 2965 2966 2968 2968 2969 2970 2969 2968 2969 2971 2970 2969 2970 2976 2979 2982 2981 2980 2982 2980 2982 2984 2985 2986 2985 2984 2988 2990 2992 2994 2998 3001 3008 3007
2917 2914 2909 2909 2908 2911 2918 2922 2930 2937 2945 2952 2956 2959 2961 2962 2963 2966 2966 2965 2963 2963 2965 2964 2965 2967 2974 2976 2979 2978 2978 2980 2982 2980 2981 2984 2984 2981 2974 2976 2977 2989 2994 2999 3003 3007 3009
2914 2910 2906 2904 2903 2904 2908 2919 2920 2930 2939 2945 2948 2951 2954 2955 2961 2961 2963 2961 2960 2961 2962 2961 2962 2961 2971 2976 2978 2979 2979 2980 2979 2982 2982 2982 2977 2976 2978 2978 2983 2989 2994 2998 3002 3007 3011
2910 2907 2903 2900 2901 2901 2908 2913 2918 2926 2934 2940 2941 2948 2950 2952 2956 2958 2959 2956 2956 2957 2960 2959 2959 2961 2964 2973 2976 2976 2978 2980 2980 2982 2981 2983 2981 2977 2981 2984 2987 2991 2995 2998 3000 3006 3010
2907 2907 2903 2901 2899 2899 2904 2910 2915 2923 2929 2933 2937 2943 2947 2949 2952 2954 2953 2952 2952 2952 2949 2953 2958 2962 2962 2968 2973 2975 2975 2978 2978 2980 2982 2986 2986 2983 2985 2985 2988 2993 2993 2995 2999 3003 3006
2904 2903 2900 2898 2896 2898 2903 2909 2913 2921 2926 2931 2936 2941 2943 2944 2948 2950 2952 2950 2948 2946 2945 2948 2954 2958 2963 2964 2969 2969 2971 2976 2979 2979 2982 2983 2985 2985 2986 2986 2990 2991 2991 2993 2995 2999 3002
2900 2899 2898 2895 2893 2893 2898 2902 2908 2914 2921 2927 2932 2937 2938 2940 2944 2947 2948 2946 2944 2942 2940 2943 2949 2956 2959 2962 2965 2967 2970 2973 2975 2977 2980 2982 2986 2987 2989 2990 2990 2988 2989 2990 2992 2994 2999
2896 2896 2894 2891 2889 2894 2897 2902 2908 2912 2918 2924 2928 2932 2935 2938 2940 2942 2943 2941 2938 2937 2936 2939 2945 2950 2955 2960 2963 2964 2967 2970 2972 2974 2978 2981 2986 2988 2989 2991 2991 2989 2988 2988 2990 2992 2994
2892 2891 2891 2890 2888 2892 2895 2900 2904 2910 2915 2920 2924 2928 2931 2933 2937 2939 2939 2938 2936 2935 2935 2937 2941 2946 2952 2957 2959 2963 2964 2966 2968 2970 2974 2978 2983 2987 2989 2990 2989 2987 2988 2989 2991 2996 2992
2889 2888 2887 2886 2885 2890 2892 2897 2902 2909 2913 2917 2921 2924 2928 2930 2934 2935 2936 2936 2935 2934 2934 2935 2939 2941 2949 2955 2958 2959 2962 2964 2966 2967 2969 2974 2979 2983 2986 2990 2989 2986 2988 2990 2990 2991 2992
2886 2885 2885 2884 2882 2886 2890 2893 2900 2905 2910 2914 2917 2922 2925 2928 2931 2933 2934 2934 2933 2932 2935 2936 2939 2942 2947 2952 2956 2956 2958 2961 2964 2965 2969 2973 2973 2976 2980 2979 2982 2983 2986 2988 2989 2990 2991